Location: Ferchesar
(52.6477°N, 12.4298°E)
Time: 13:57:15
(UTC+01:00)

Altair - Pass Details

Date: 12 December 2021
Orbit: 1501 x 1683 km, 47.2° (Epoch: 27 January)

Event Time Altitude Azimuth Distance (km) Brightness Sun altitude
Rises 19:11:15 0° 284° (WNW) 4,725 11.2 -28.2°
Reaches altitude 10° 19:14:37 10° 276° (W) 3,717 10.4 -28.7°
Maximum altitude 19:22:51 37° 214° (SW) 2,191 8.5 -30.0°
Enters shadow 19:28:28 19° 161° (SSE) 2,984 8.8 -30.8°
